Weather History for Big Piney, WY

Change the Weather History Date:

Tuesday, April 30, 2013

  Actual Average Record
Temperature  
Mean Temperature 35 °F 41 °F  
Max Temperature 50 °F 57 °F 72 °F (1987)
Min Temperature 19 °F 25 °F -5 °F (1984)
Degree Days  
Heating Degree Days 30 24  
Month to date heating degree days 925 836  
Since 1 July heating degree days 8907 9531  
Cooling Degree Days 0 0  
Month to date cooling degree days 0 0  
Year to date cooling degree days 0 0  
Moisture  
Dew Point 7 °F    
Average Humidity 36    
Maximum Humidity 60    
Minimum Humidity 11    
Precipitation  
Precipitation 0.00 in 0.02 in 0.29 in (1999)
Month to date precipitation 0.25 0.53  
Year to date precipitation 0.44 1.63  
Sea Level Pressure  
Sea Level Pressure 29.73 in    
Wind  
Wind Speed 11 mph (NW)    
Max Wind Speed 29 mph    
Max Gust Speed 37 mph    
Visibility 10 miles    
Events      
T = Trace of Precipitation, MM = Missing Value Source: NWS Daily Summary

Daily Weather History Graph

Daily Weather History Graph

Search for Another Location

Airport:

Trip Planner

Search our weather history database for the weather conditions in past years. The results will help you decide how hot, cold, wet, or windy it might be!

Date:

Astronomy

Apr. 30, 2013 Rise Set
Actual Time 6:16 AM MDT 8:19 PM MDT
Civil Twilight 5:45 AM MDT 8:50 PM MDT
Nautical Twilight 5:07 AM MDT 9:28 PM MDT
Astronomical Twilight 4:26 AM MDT 10:09 PM MDT
Moon 12:47 AM MDT (4/30) 10:47 AM MDT (4/30)
Length of Visible Light 15h 05m
Length of Day
14h 03m
Waning Gibbous, 69% of the Moon is Illuminated
Apr 30
Waning Gibbous
May 2
Last Quarter
May 9
New
May 17
First Quarter
May 24
Full

Hourly Weather History & Observations

Time (MDT) Temp. Windchill Dew Point Humidity Pressure Visibility Wind Dir Wind Speed Gust Speed Precip Events Conditions
12:53 AM 41.0 °F 35.2 °F 23.0 °F 49% 29.59 in 10.0 mi WNW 9.2 mph - N/A   Clear
1:53 AM 41.0 °F 34.3 °F 19.9 °F 43% 29.60 in 10.0 mi NW 11.5 mph - N/A   Clear
2:53 AM 37.0 °F 31.0 °F 16.0 °F 42% 29.61 in 10.0 mi NW 8.1 mph - N/A   Clear
3:53 AM 35.1 °F 32.2 °F 12.9 °F 40% 29.64 in 10.0 mi West 3.5 mph - N/A   Clear
4:53 AM 35.1 °F 31.0 °F 12.0 °F 39% 29.64 in 10.0 mi West 4.6 mph - N/A   Clear
5:53 AM 26.1 °F 21.9 °F 12.0 °F 55% 29.67 in 10.0 mi NE 3.5 mph - N/A   Clear
6:53 AM 32.0 °F - 12.0 °F 44% 29.68 in 10.0 mi Calm Calm - N/A   Clear
7:53 AM 39.0 °F 36.8 °F 12.9 °F 34% 29.66 in 10.0 mi Variable 3.5 mph - N/A   Clear
8:53 AM 43.0 °F 37.7 °F 8.1 °F 24% 29.66 in 10.0 mi NW 9.2 mph - N/A   Clear
9:53 AM 46.0 °F 41.0 °F 6.1 °F 20% 29.64 in 10.0 mi NNW 10.4 mph - N/A   Clear
10:53 AM 46.0 °F 39.9 °F -0.0 °F 15% 29.64 in 10.0 mi NNW 13.8 mph 19.6 mph N/A   Clear
11:53 AM 48.0 °F - -4.0 °F 11% 29.65 in 10.0 mi West 19.6 mph 27.6 mph N/A   Clear
12:53 PM 48.9 °F - -5.1 °F 11% 29.66 in 10.0 mi West 19.6 mph 32.2 mph N/A   Clear
1:53 PM 48.9 °F - -6.0 °F 10% 29.66 in 10.0 mi West 23.0 mph 32.2 mph N/A   Clear
2:53 PM 48.0 °F - -2.0 °F 13% 29.71 in 10.0 mi WNW 23.0 mph 35.7 mph N/A   Clear
3:53 PM 48.0 °F - -2.9 °F 12% 29.73 in 10.0 mi WNW 25.3 mph 35.7 mph N/A   Clear
4:53 PM 46.9 °F - -0.0 °F 14% 29.76 in 10.0 mi NW 18.4 mph 29.9 mph N/A   Partly Cloudy
5:53 PM 41.0 °F 33.5 °F 3.9 °F 21% 29.86 in 10.0 mi NW 13.8 mph - N/A   Partly Cloudy
6:53 PM 42.1 °F 34.2 °F 5.0 °F 22% 29.85 in 10.0 mi NW 16.1 mph 23.0 mph N/A   Clear
7:53 PM 37.0 °F 30.4 °F 3.9 °F 25% 29.86 in 10.0 mi NNW 9.2 mph - N/A   Clear
8:53 PM 30.0 °F 21.7 °F 6.1 °F 36% 29.90 in 10.0 mi North 9.2 mph - N/A   Clear
9:53 PM 28.0 °F 19.3 °F 10.0 °F 47% 29.92 in 10.0 mi North 9.2 mph - N/A   Clear
10:53 PM 26.1 °F 15.6 °F 10.9 °F 53% 29.94 in 10.0 mi NNE 11.5 mph - N/A   Clear
11:53 PM 25.0 °F - 12.9 °F 60% 29.95 in 10.0 mi Calm Calm - N/A   Clear